Location: S�deilles
(46.7500°N, 6.9329°E)
Time: 15:47:44
(UTC+00:00)

USA 306 - Pass Details

Date: 08 March 2021
Orbit: 564 x 577 km, 54.0° (Epoch: 17 April)

Event Time Altitude Azimuth Distance (km) Brightness Sun altitude
Rises 20:08:28 0° 301° (WNW) 2,771 7.7 -27.6°
Reaches altitude 10° 20:10:44 10° 298° (WNW) 1,869 6.5 -27.9°
Enters shadow 20:13:35 39° 281° (W) 852 4.1 -28.4°
